Weather History for Martha's Vineyard, MA

Change the Weather History Date:

Tuesday, November 26, 2013

  Actual Average Record
Temperature  
Mean Temperature 45 °F -  
Max Temperature 50 °F 48 °F 68 °F (1979)
Min Temperature 42 °F 31 °F 15 °F (1993)
Degree Days  
Heating Degree Days 20    
Moisture  
Dew Point 36 °F    
Average Humidity 71    
Maximum Humidity 93    
Minimum Humidity 53    
Precipitation  
Precipitation 0.07 in - - ()
Sea Level Pressure  
Sea Level Pressure 30.25 in    
Wind  
Wind Speed 9 mph (SSW)    
Max Wind Speed 14 mph    
Max Gust Speed 23 mph    
Visibility 10 miles    
Events Rain    
Averages and records for this station are not official NWS values.
T = Trace of Precipitation, MM = Missing Value Source: NWS Daily Summary

Daily Weather History Graph

Daily Weather History Graph

Search for Another Location

Airport:

Trip Planner

Search our weather history database for the weather conditions in past years. The results will help you decide how hot, cold, wet, or windy it might be!

Date:

Astronomy

Nov. 26, 2013 Rise Set
Actual Time 6:43 AM EST 4:15 PM EST
Civil Twilight 6:13 AM EST 4:45 PM EST
Nautical Twilight 5:39 AM EST 5:20 PM EST
Astronomical Twilight 5:06 AM EST 5:53 PM EST
Moon No Moon Rise 12:24 PM EST (11/26)
Length of Visible Light 10h 32m
Length of Day
9h 31m
Last Quarter, 41% of the Moon is Illuminated
Nov 26
Last Quarter
Dec 2
New
Dec 9
First Quarter
Dec 17
Full
Dec 25
Last Quarter

Hourly Weather History & Observations

Time (EST) Temp. Windchill Dew Point Humidity Pressure Visibility Wind Dir Wind Speed Gust Speed Precip Events Conditions
12:53 AM 44.1 °F 37.4 °F 30.0 °F 58% 30.31 in 10.0 mi SW 13.8 mph 23.0 mph N/A   Scattered Clouds
1:53 AM 44.1 °F 38.6 °F 30.9 °F 60% 30.32 in 10.0 mi West 10.4 mph 23.0 mph N/A   Scattered Clouds
2:53 AM 42.1 °F 37.1 °F 30.0 °F 62% 30.31 in 10.0 mi WSW 8.1 mph - N/A   Overcast
3:53 AM 42.1 °F 36.1 °F 32.0 °F 67% 30.31 in 10.0 mi West 10.4 mph 19.6 mph N/A   Clear
4:53 AM 42.1 °F 37.1 °F 32.0 °F 67% 30.31 in 10.0 mi WSW 8.1 mph - N/A   Clear
5:53 AM 44.1 °F 39.0 °F 28.0 °F 53% 30.33 in 10.0 mi WSW 9.2 mph 19.6 mph N/A   Scattered Clouds
6:53 AM 43.0 °F 38.2 °F 28.9 °F 58% 30.32 in 10.0 mi WSW 8.1 mph - N/A   Overcast
7:53 AM 43.0 °F 37.7 °F 30.0 °F 60% 30.35 in 10.0 mi West 9.2 mph - N/A   Overcast
8:53 AM 45.0 °F 41.2 °F 30.9 °F 58% 30.33 in 10.0 mi West 6.9 mph - N/A   Clear
9:53 AM 45.0 °F 40.1 °F 30.9 °F 58% 30.34 in 10.0 mi West 9.2 mph - N/A   Overcast
10:53 AM 46.0 °F 41.4 °F 30.9 °F 56% 30.32 in 10.0 mi West 9.2 mph - N/A   Overcast
11:53 AM 46.0 °F 42.5 °F 30.9 °F 56% 30.30 in 10.0 mi WNW 6.9 mph - N/A   Overcast
12:53 PM 46.9 °F - 32.0 °F 56% 30.30 in 10.0 mi West 5.8 mph - N/A   Overcast
1:53 PM 46.9 °F - 33.1 °F 59% 30.28 in 10.0 mi West 4.6 mph - N/A   Overcast
2:53 PM 46.9 °F - 33.1 °F 59% 30.29 in 10.0 mi Calm Calm - N/A   Overcast
3:53 PM 45.0 °F 43.5 °F 35.1 °F 68% 30.29 in 10.0 mi South 3.5 mph - 0.00 in Rain Light Rain
4:53 PM 44.1 °F 41.5 °F 36.0 °F 73% 30.27 in 10.0 mi ESE 4.6 mph - 0.00 in   Overcast
5:53 PM 43.0 °F 41.3 °F 37.0 °F 80% 30.26 in 10.0 mi ENE 3.5 mph - N/A   Overcast
6:53 PM 43.0 °F 40.3 °F 39.0 °F 86% 30.25 in 10.0 mi East 4.6 mph - 0.00 in Rain Light Rain
7:53 PM 43.0 °F 38.2 °F 39.9 °F 89% 30.22 in 8.0 mi East 8.1 mph - 0.02 in Rain Light Rain
8:53 PM 45.0 °F 41.8 °F 42.1 °F 90% 30.19 in 10.0 mi East 5.8 mph - 0.01 in Rain Light Rain
9:53 PM 46.9 °F - 44.1 °F 90% 30.14 in 7.0 mi ESE 11.5 mph - 0.02 in Rain Light Rain
10:53 PM 48.0 °F - 45.0 °F 89% 30.10 in 10.0 mi ESE 13.8 mph - 0.02 in   Overcast
11:06 PM 48.2 °F - 44.6 °F 87% 30.09 in 10.0 mi ESE 13.8 mph 20.7 mph N/A   Overcast
11:18 PM 48.2 °F - 46.4 °F 93% 30.07 in 10.0 mi ESE 13.8 mph - N/A   Overcast
11:33 PM 48.2 °F - 46.4 °F 93% 30.06 in 10.0 mi ESE 12.7 mph 20.7 mph N/A   Overcast
11:53 PM 50.0 °F - 46.9 °F 89% 30.04 in 10.0 mi ESE 12.7 mph 19.6 mph N/A   Overcast